Location: ??????
(55.2000°N, 38.3000°E)
Time: 16:59:10
(UTC+00:00)

NOSS 3-1 (A) - Pass Details

Date: 15 November 2025
Orbit: 621 x 1586 km, 63.4° (Epoch: 02 December)

Event Time Altitude Azimuth Distance (km) Brightness Sun altitude
Exits shadow 03:37:47 14° 271° (W) 2,052 4.6 -11.5°
Maximum altitude 03:42:10 48° 342° (NNW) 1,157 3.7 -10.9°
Drops below altitude 10° 03:48:37 10° 56° (NE) 2,899 6.5 -10.0°
Sets 03:51:44 0° 62° (ENE) 4,023 7.4 -9.6°
